Weather History for KRTS - February, 2013

Change the Weather History Date:

Monday, February 25, 2013

  Actual Average (KRNO) Record (KRNO)
Temperature  
Mean Temperature 32 °F 42 °F  
Max Temperature 48 °F 54 °F 73 °F (1963)
Min Temperature 15 °F 31 °F 4 °F (1897)
Degree Days  
Heating Degree Days 34 23  
Month to date heating degree days 634  
Since 1 July heating degree days 3571  
Cooling Degree Days 0 0  
Month to date cooling degree days 0  
Year to date cooling degree days 0  
Moisture  
Dew Point 8 °F    
Average Humidity 43    
Maximum Humidity 74    
Minimum Humidity 18    
Precipitation  
Precipitation 0.00 in 0.04 in 1.90 in (1904)
Month to date precipitation 0.90  
Year to date precipitation 1.93  
Snow  
Snow 0.00 in 0.10 in 5.70 in (1969)
Month to date snowfall 4.4  
Since 1 July snowfall 18.4  
Snow Depth -    
Sea Level Pressure  
Sea Level Pressure 30.16 in    
Wind  
Wind Speed 8 mph (NNW)    
Max Wind Speed 31 mph    
Max Gust Speed 38 mph    
Visibility 10 miles    
Events      
T = Trace of Precipitation, MM = Missing Value Source: NWS Daily Summary

Daily Weather History Graph

Daily Weather History Graph

Search for Another Location

Airport or City:

Trip Planner

Search our weather history database for the weather conditions in past years. The results will help you decide how hot, cold, wet, or windy it might be!

Date:

Astronomy

Feb. 25, 2013 Rise Set
Actual Time 6:37 AM PST 5:47 PM PST
Civil Twilight 6:10 AM PST 6:14 PM PST
Nautical Twilight 5:39 AM PST 6:46 PM PST
Astronomical Twilight 5:08 AM PST 7:17 PM PST
Moon 6:06 PM PST (2/25) 6:10 AM PST (2/25)
Length of Visible Light 12h 04m
Length of Day
11h 09m
Full, 100% of the Moon is Illuminated
Feb 25
Full
Feb 25
Full
Mar 4
Last Quarter
Mar 11
New
Mar 19
First Quarter

Hourly Weather History & Observations

Time (PST) Temp. Windchill Dew Point Humidity Pressure Visibility Wind Dir Wind Speed Gust Speed Precip Events Conditions
12:10 AM 17.6 °F 12.3 °F 6.8 °F 63% 30.23 in 10.0 mi North 3.5 mph - N/A   Clear
12:30 AM 17.6 °F 8.2 °F 6.8 °F 63% 30.23 in 10.0 mi North 6.9 mph - N/A   Clear
12:50 AM 17.6 °F 10.7 °F 6.8 °F 63% 30.23 in 10.0 mi NW 4.6 mph - N/A   Clear
1:10 AM 17.6 °F 10.7 °F 6.8 °F 63% 30.22 in 10.0 mi North 4.6 mph - N/A   Clear
1:30 AM 17.6 °F 9.3 °F 5.0 °F 58% 30.22 in 10.0 mi NNW 5.8 mph - N/A   Clear
1:50 AM 15.8 °F 10.2 °F 5.0 °F 62% 30.21 in 10.0 mi NNW 3.5 mph - N/A   Clear
2:15 AM 19.4 °F 12.8 °F 6.8 °F 58% 30.21 in 10.0 mi North 4.6 mph - N/A   Clear
2:30 AM 17.6 °F 12.3 °F 6.8 °F 63% 30.20 in 10.0 mi NNW 3.5 mph - N/A   Clear
2:50 AM 17.6 °F - 6.8 °F 63% 30.20 in 10.0 mi Calm Calm - N/A   Clear
3:10 AM 15.8 °F 8.6 °F 6.8 °F 68% 30.20 in 10.0 mi NNW 4.6 mph - N/A   Clear
3:35 AM 19.4 °F 14.3 °F 8.6 °F 63% 30.19 in 10.0 mi North 3.5 mph - N/A   Clear
3:50 AM 19.4 °F 14.3 °F 8.6 °F 63% 30.20 in 10.0 mi NNW 3.5 mph - N/A   Clear
4:10 AM 19.4 °F 14.3 °F 8.6 °F 63% 30.19 in 10.0 mi NNE 3.5 mph - N/A   Clear
4:30 AM 19.4 °F 12.8 °F 8.6 °F 63% 30.18 in 10.0 mi ESE 4.6 mph - N/A   Clear
4:55 AM 19.4 °F - 10.4 °F 68% 30.19 in 10.0 mi Calm Calm - N/A   Clear
5:10 AM 19.4 °F - 10.4 °F 68% 30.19 in 10.0 mi Calm Calm - N/A   Clear
5:30 AM 17.6 °F 12.3 °F 10.4 °F 73% 30.17 in 10.0 mi SSW 3.5 mph - N/A   Clear
5:50 AM 17.6 °F 10.7 °F 8.6 °F 68% 30.16 in 10.0 mi NNW 4.6 mph - N/A   Partly Cloudy
6:10 AM 17.6 °F 12.3 °F 10.4 °F 73% 30.15 in 10.0 mi NW 3.5 mph - N/A   Partly Cloudy
6:30 AM 21.2 °F - 10.4 °F 63% 30.15 in 10.0 mi Calm Calm - N/A   Clear
6:50 AM 19.4 °F 12.8 °F 10.4 °F 68% 30.15 in 10.0 mi South 4.6 mph - N/A   Clear
7:10 AM 19.4 °F - 10.4 °F 68% 30.15 in 10.0 mi Calm Calm - N/A   Clear
7:30 AM 17.6 °F - 10.4 °F 73% 30.15 in 10.0 mi Calm Calm - N/A   Clear
7:50 AM 21.2 °F - 14.0 °F 74% 30.16 in 10.0 mi Calm Calm - N/A   Clear
8:10 AM 26.6 °F - 14.0 °F 59% 30.16 in 10.0 mi Calm Calm - N/A   Clear
8:30 AM 30.2 °F - 14.0 °F 51% 30.16 in 10.0 mi Calm Calm - N/A   Clear
8:55 AM 32.0 °F - 15.8 °F 51% 30.16 in 10.0 mi Calm Calm - N/A   Clear
9:15 AM 37.4 °F 34.9 °F 15.8 °F 41% 30.16 in 10.0 mi SSE 3.5 mph - N/A   Clear
9:35 AM 41.0 °F 39.0 °F 15.8 °F 36% 30.15 in 10.0 mi SW 3.5 mph - N/A   Clear
9:50 AM 44.6 °F 38.4 °F 15.8 °F 31% 30.13 in 10.0 mi NW 12.7 mph - N/A   Clear
10:15 AM 46.4 °F 41.1 °F 15.8 °F 29% 30.13 in 10.0 mi West 11.5 mph - N/A   Clear
10:30 AM 46.4 °F 41.1 °F 14.0 °F 27% 30.13 in 10.0 mi WNW 11.5 mph - N/A   Clear
10:55 AM 48.2 °F - 10.4 °F 22% 30.11 in 10.0 mi WNW 23.0 mph 28.8 mph N/A   Clear
11:10 AM 48.2 °F - 10.4 °F 22% 30.11 in 10.0 mi WNW 26.5 mph 33.4 mph N/A   Clear
11:30 AM 48.2 °F - 12.2 °F 24% 30.11 in 10.0 mi NW 23.0 mph 32.2 mph N/A   Clear
11:50 AM 48.2 °F - 10.4 °F 22% 30.12 in 10.0 mi NW 23.0 mph 35.7 mph N/A   Clear
12:15 PM 48.2 °F - 8.6 °F 20% 30.12 in 10.0 mi WNW 31.1 mph 38.0 mph N/A   Clear
12:35 PM 48.2 °F - 8.6 °F 20% 30.13 in 10.0 mi NW 26.5 mph 38.0 mph N/A   Clear
12:50 PM 48.2 °F - 10.4 °F 22% 30.13 in 10.0 mi NW 28.8 mph 34.5 mph N/A   Clear
1:10 PM 46.4 °F 38.1 °F 10.4 °F 23% 30.13 in 10.0 mi WNW 24.2 mph 36.8 mph N/A   Clear
1:30 PM 46.4 °F 38.1 °F 12.2 °F 25% 30.13 in 10.0 mi NW 24.2 mph 33.4 mph N/A   Clear
1:55 PM 46.4 °F 37.5 °F 8.6 °F 22% 30.13 in 10.0 mi NW 27.6 mph 36.8 mph N/A   Clear
2:10 PM 46.4 °F 38.5 °F 8.6 °F 22% 30.13 in 10.0 mi WNW 21.9 mph 32.2 mph N/A   Clear
2:35 PM 46.4 °F 39.2 °F 8.6 °F 22% 30.13 in 10.0 mi WNW 18.4 mph 25.3 mph N/A   Clear
2:50 PM 46.4 °F 40.1 °F 8.6 °F 22% 30.13 in 10.0 mi WNW 15.0 mph 33.4 mph N/A   Clear
3:10 PM 46.4 °F 39.5 °F 8.6 °F 22% 30.13 in 10.0 mi NW 17.3 mph 28.8 mph N/A   Clear
3:30 PM 46.4 °F 38.7 °F 8.6 °F 22% 30.13 in 10.0 mi WNW 20.7 mph 28.8 mph N/A   Clear
3:50 PM 46.4 °F 40.1 °F 6.8 °F 20% 30.12 in 10.0 mi NW 15.0 mph 25.3 mph N/A   Clear
4:10 PM 44.6 °F 37.4 °F 6.8 °F 21% 30.12 in 10.0 mi North 16.1 mph 23.0 mph N/A   Clear
4:30 PM 44.6 °F 36.6 °F 3.2 °F 18% 30.13 in 10.0 mi North 19.6 mph 26.5 mph N/A   Clear
4:50 PM 42.8 °F 34.0 °F 5.0 °F 21% 30.12 in 10.0 mi North 20.7 mph 25.3 mph N/A   Clear
5:10 PM 41.0 °F 31.9 °F 5.0 °F 23% 30.13 in 10.0 mi North 19.6 mph - N/A   Clear
5:30 PM 39.2 °F 30.2 °F 3.2 °F 22% 30.13 in 10.0 mi North 17.3 mph - N/A   Clear
5:50 PM 37.4 °F 28.9 °F 3.2 °F 24% 30.14 in 10.0 mi North 13.8 mph - N/A   Clear
6:10 PM 35.6 °F 29.2 °F 3.2 °F 26% 30.15 in 10.0 mi NE 8.1 mph - N/A   Clear
6:30 PM 35.6 °F - 3.2 °F 26% 30.17 in 10.0 mi Calm Calm - N/A   Clear
6:55 PM 35.6 °F 29.9 °F 5.0 °F 28% 30.16 in 10.0 mi North 6.9 mph - N/A   Clear
7:10 PM 33.8 °F 26.4 °F 5.0 °F 30% 30.16 in 10.0 mi NW 9.2 mph 16.1 mph N/A   Clear
7:30 PM 32.0 °F 23.6 °F 5.0 °F 32% 30.16 in 10.0 mi NW 10.4 mph - N/A   Clear
7:50 PM 30.2 °F 24.3 °F 5.0 °F 34% 30.16 in 10.0 mi North 5.8 mph - N/A   Clear
8:10 PM 28.4 °F 24.6 °F 5.0 °F 37% 30.18 in 10.0 mi ESE 3.5 mph - N/A   Clear
8:30 PM 32.0 °F - 6.8 °F 35% 30.18 in 10.0 mi Calm Calm - N/A   Clear
8:50 PM 28.4 °F 22.2 °F 5.0 °F 37% 30.17 in 10.0 mi North 5.8 mph - N/A   Clear
9:10 PM 26.6 °F 21.2 °F 5.0 °F 40% 30.18 in 10.0 mi NNW 4.6 mph - N/A   Clear
9:30 PM 24.8 °F - 5.0 °F 43% 30.18 in 10.0 mi Calm Calm - N/A   Clear
9:50 PM 30.2 °F 25.4 °F 6.8 °F 37% 30.18 in 10.0 mi SW 4.6 mph - N/A   Clear
10:10 PM 26.6 °F - 6.8 °F 43% 30.17 in 10.0 mi Calm Calm - N/A   Clear
10:30 PM 23.0 °F 18.4 °F 5.0 °F 46% 30.17 in 10.0 mi NNE 3.5 mph - N/A   Clear
10:55 PM 26.6 °F 19.1 °F 6.8 °F 43% 30.18 in 10.0 mi NNW 6.9 mph - N/A   Clear
11:10 PM 23.0 °F 12.4 °F 6.8 °F 50% 30.18 in 10.0 mi North 10.4 mph - N/A   Clear
11:30 PM 23.0 °F 12.4 °F 6.8 °F 50% 30.20 in 10.0 mi North 10.4 mph - N/A   Clear
11:50 PM 24.8 °F 19.1 °F 6.8 °F 46% 30.20 in 10.0 mi WSW 4.6 mph - N/A   Clear